W7OG-10 Weather Reports


Display with metric or nautical units.
time (UTC)temp
F
wind
direction
speed
MPH
gust
MPH
rain 1hr
in
rain 24hr
in
rain mn
in
humidity
%
barometer
mb
20260503203837 87 181 3.0 6.0 0.00 0.00 0.00 72 1010.7
20260503202816 87 181 3.0 8.0 0.00 0.00 0.00 71 1010.7
20260503201817 87 181 1.0 5.0 0.00 0.00 0.00 73 1010.8
20260503200837 87 181 2.0 7.0 0.00 0.00 0.00 72 1010.9
20260503195817 86 181 2.0 6.0 0.00 0.00 0.00 71 1011.1
20260503194819 86 181 2.0 5.0 0.00 0.00 0.00 72 1011.2
20260503193816 86 181 2.0 6.0 0.00 0.00 0.00 74 1011.3
20260503192817 86 181 1.0 5.0 0.00 0.00 0.00 75 1011.4
20260503191817 86 181 3.0 7.0 0.00 0.00 0.00 76 1011.4
20260503190816 85 181 4.0 8.0 0.00 0.00 0.00 77 1011.5
20260503185816 85 181 1.0 6.0 0.00 0.00 0.00 78 1011.6
20260503184837 85 181 2.0 7.0 0.00 0.00 0.00 78 1011.7
20260503183817 84 181 1.0 7.0 0.00 0.00 0.00 77 1011.7
20260503182817 84 181 2.0 6.0 0.00 0.00 0.00 79 1011.8
20260503181820 84 181 0.0 5.0 0.00 0.00 0.00 81 1011.9
20260503180816 84 181 1.0 5.0 0.00 0.00 0.00 80 1011.9
20260503175837 84 181 1.0 5.0 0.00 0.00 0.00 81 1012.0
20260503174817 84 0.0 0.0 0.00 0.00 0.00 80 1011.9
20260503173816 85 181 2.0 6.0 0.00 0.00 0.00 79 1011.9
20260503172817 85 181 2.0 5.0 0.00 0.00 0.00 79 1011.9
20260503171837 84 181 1.0 5.0 0.00 0.00 0.00 80 1011.9
20260503170817 84 181 1.0 6.0 0.00 0.00 0.00 82 1011.7
20260503150817 81 181 1.0 3.0 0.00 0.00 0.00 91 1013.8
20260503130818 76 0.0 0.0 0.00 0.00 0.00 95 1014.1
20260503110819 77 0.0 0.0 0.00 0.00 0.00 92 1014.1
20260503080819 78 0.0 0.0 0.00 0.00 0.00 91 1013.7
20260503072819 78 0.0 0.0 0.00 0.00 0.00 89 1013.6
20260503071819 79 0.0 0.0 0.00 0.00 0.00 89 1013.6
20260503070820 79 0.0 0.0 0.00 0.00 0.00 89 1013.6
20260503054820 80 0.0 0.0 0.00 0.00 0.00 86 1013.1
20260503053820 80 0.0 0.0 0.00 0.00 0.00 85 1013.1
20260503052820 80 181 0.0 1.0 0.00 0.00 0.00 84 1013.1
20260503051820 80 181 0.0 5.0 0.00 0.00 0.00 85 1013.1
20260503050820 80 0.0 0.0 0.00 0.00 0.00 85 1013.0
20260503045840 80 0.0 0.0 0.00 0.00 0.00 85 1013.0
20260503044820 81 0.0 0.0 0.00 0.00 0.00 85 1012.9
20260503043821 81 0.0 0.0 0.00 0.00 0.00 85 1012.8
20260503042820 81 0.0 0.0 0.00 0.00 0.00 85 1012.7
20260503041821 82 0.0 0.0 0.00 0.00 0.00 81 1012.6
20260503040820 82 0.0 0.0 0.00 0.00 0.00 80 1012.6
20260503035820 82 181 0.0 5.0 0.00 0.00 0.00 81 1012.4
20260503034901 82 181 1.0 6.0 0.00 0.00 0.00 81 1012.3
20260503033821 81 181 1.0 5.0 0.00 0.00 0.00 81 1012.1
20260503032821 82 181 1.0 8.0 0.00 0.00 0.00 81 1012.0
20260503031820 82 181 1.0 7.0 0.00 0.00 0.00 81 1011.9
20260503030821 82 181 1.0 6.0 0.00 0.00 0.00 82 1011.9
20260503025821 82 181 1.0 10.0 0.00 0.00 0.00 82 1011.7
20260503024820 82 181 1.0 7.0 0.00 0.00 0.00 82 1011.7
20260503023821 83 181 1.0 7.0 0.00 0.00 0.00 82 1011.8
20260503022820 83 181 0.0 6.0 0.00 0.00 0.00 82 1011.8
20260503021821 83 181 0.0 3.0 0.00 0.00 0.00 82 1011.8
20260503020821 83 181 0.0 3.0 0.00 0.00 0.00 82 1011.8
20260503015821 84 181 0.0 3.0 0.00 0.00 0.00 82 1011.9
20260503014822 84 0.0 0.0 0.00 0.00 0.00 82 1012.0
20260503013821 84 181 0.0 3.0 0.00 0.00 0.00 82 1012.0
20260503012822 84 0.0 0.0 0.00 0.00 0.00 81 1012.0
20260503011821 84 181 0.0 3.0 0.00 0.00 0.00 80 1012.2
20260503010821 84 181 1.0 6.0 0.00 0.00 0.00 79 1012.2
20260503005821 84 181 1.0 6.0 0.00 0.00 0.00 80 1012.2
20260503004842 84 181 1.0 6.0 0.00 0.00 0.00 80 1012.3
20260503003822 85 181 1.0 6.0 0.00 0.00 0.00 80 1012.3
20260503002821 85 181 2.0 9.0 0.00 0.00 0.00 80 1012.3
20260503001822 85 181 2.0 6.0 0.00 0.00 0.00 80 1012.4
20260503000823 85 181 0.0 4.0 0.00 0.00 0.00 80 1012.5
20260502235821 84 181 2.0 8.0 0.00 0.00 0.00 81 1012.5
20260502234823 85 181 2.0 8.0 0.00 0.00 0.00 81 1012.6
20260502233822 85 181 2.0 7.0 0.00 0.00 0.00 81 1012.8
20260502232822 85 181 1.0 6.0 0.00 0.00 0.00 82 1012.9
20260502231823 85 181 4.0 10.0 0.00 0.00 0.00 81 1013.1
20260502230843 85 181 3.0 7.0 0.00 0.00 0.00 81 1013.1
20260502225821 84 181 1.0 3.0 0.00 0.00 0.00 83 1013.4
20260502224822 84 181 1.0 6.0 0.00 0.00 0.00 83 1013.6
20260502222822 84 181 1.0 5.0 0.00 0.00 0.00 83 1014.0
20260502221822 84 181 3.0 11.0 0.00 0.00 0.00 83 1014.2
20260502220842 84 181 2.0 8.0 0.00 0.00 0.00 83 1014.4
20260502215824 84 181 2.0 7.0 0.00 0.00 0.00 83 1014.5
20260502214823 84 181 2.0 7.0 0.00 0.00 0.00 83 1014.6
20260502213822 84 181 3.0 10.0 0.00 0.00 0.00 83 1014.7
20260502212822 84 181 1.0 6.0 0.00 0.00 0.00 84 1014.9
20260502211822 83 181 2.0 9.0 0.00 0.00 0.00 84 1014.9
20260502210823 83 181 3.0 6.0 0.00 0.00 0.00 84 1015.0
20260502205823 83 181 1.0 6.0 0.00 0.00 0.00 85 1015.0
20260502204823 83 181 3.0 10.0 0.00 0.00 0.00 86 1015.1